Location: Nelson
(41.2830°S, 173.2830°E)
Time: 23:51:20
(UTC+13:00)

ISS - Pass Details

Date: 01 February 2019
Orbit: 403 x 411 km, 51.6° (Epoch: 22 February)

Event Time Altitude Azimuth Distance (km) Brightness Sun altitude
Exits shadow 05:19:38 21° 287° (WNW) 1,007 -2.4 -12.5°
Maximum altitude 05:21:42 58° 213° (SSW) 493 -3.4 -12.2°
Drops below altitude 10° 05:25:02 10° 132° (SE) 1,500 0.6 -11.7°
Sets 05:27:09 0° 127° (SE) 2,365 2.3 -11.4°
